星链-32032 (STARLINK-32032 )

导读

STARLINK-32032是美国SpaceX公司星链(Starlink)星座的组网卫星,于2024年6月19日发射入轨。星链项目旨在搭建全球覆盖的低轨卫星互联网通信系统,该卫星继承了星链的技术设计,搭载通信载荷,可支持高速卫星互联网接入,服务全球多地用户,目前已在轨运行,参与星链低轨星座的服务扩容,延续了星链全球卫星互联网组网的节奏。

Basic Information
目录编号:
60077
目录名称:
STARLINK-32032
国际标识:
2024-113U
轨道中心:
EARTH
卫星名称:
星链-32032
卫星全名:
星链-32032 (STARLINK-32032 )
卫星状态:
在轨 (已飞行807 天)
发射日期:
2024-06-19 UTC
国别 :
美国 (US)
星等 :
--
Orbit Information
数据来源 国际轨道数据 AOE轨道数据
星历时间 2026-09-03T17:22:43+0800
20小时前
查看轨道信息
2026-09-04T00:00:00+0800
13小时前
查看轨道信息
半长轴 6840.859km 6840.795km
偏心率 0.0001173 0.0001101
轨道倾角 53.159° 53.157°
近地点辐角 83.605° 78.203°
升交点赤经 249.677° 248.391°
平近点角 276.509° 6.764°
近地点 461.919km 461.904km
远地点 463.525km 463.412km
周期 93.848分钟 93.847分钟
每日圈数 15.343938 15.344155
Detailed Information
固有亮度:
5
最大亮度:
1.5
卫星平台:
Starlink v2.0 mini
覆盖范围:
全球
运营商:
太空探索技术公司
运营商所在国:
美国
制造商(研发单位):
太空探索技术公司
制造商所在国:
美国
使用方式:
暂无
Satellite Introduction
星链(Starlink)计划是由太空探索技术公司(SpaceX)提出的一个巨型低轨卫星互联网星座项目,计划在2019年至2024年间在太空搭建由约1.2万颗卫星组成的“星链”网络,其中1584颗将部署在地球上空550千米处的近地轨道,并从2020年开始工作。该卫星仍在工作。
2D Orbit Map
3D Orbit Map
Orbit Altitude Analysis Chart
Orbit Inclination Analysis Chart
Orbit Comprehensive Analysis Chart
View Comprehensive Chart
Conjunction Data List
Event ID Objects TCA Miss Dist (km) Collision Risk Probability Collision Risk Index (CRI) Action
CDM_260905-064206-007706-808921
2026-09-05T
06:42:53+0000
1.575 km
极远距离
5.036816E-6 低风险 0.49